Weather History for Beaver Island, MI

Change the Weather History Date:

Sunday, June 23, 2013

  Actual Average Record
Temperature  
Mean Temperature 66 °F -  
Max Temperature 77 °F 71 °F 85 °F (1966)
Min Temperature 54 °F 51 °F 38 °F (1979)
Growing Degree Days 16 (Base 50)    
Moisture  
Dew Point 60 °F    
Average Humidity 84    
Maximum Humidity 100    
Minimum Humidity 56    
Precipitation  
Precipitation 0.00 in - - ()
Sea Level Pressure  
Sea Level Pressure 29.94 in    
Wind  
Wind Speed 8 mph (South)    
Max Wind Speed 18 mph    
Max Gust Speed 25 mph    
Visibility 8 miles    
Events Rain    
Averages and records for this station are not official NWS values.
T = Trace of Precipitation, MM = Missing Value Source: NWS Daily Summary

Daily Weather History Graph

Daily Weather History Graph

Search for Another Location

Airport:

Trip Planner

Search our weather history database for the weather conditions in past years. The results will help you decide how hot, cold, wet, or windy it might be!

Date:

Astronomy

Jun. 23, 2013 Rise Set
Actual Time 5:53 AM EDT 9:35 PM EDT
Civil Twilight 5:15 AM EDT 10:14 PM EDT
Nautical Twilight 4:23 AM EDT 11:05 PM EDT
Astronomical Twilight 3:13 AM EDT 12:15 AM EDT
Moon 9:42 PM EDT (6/23) 6:13 AM EDT (6/23)
Length of Visible Light 16h 58m
Length of Day
15h 42m
Full, 100% of the Moon is Illuminated
Jun 23
Full
Jun 30
Last Quarter
Jul 8
New
Jul 15
First Quarter
Jul 22
Full

Hourly Weather History & Observations

Time (EDT) Temp. Dew Point Humidity Pressure Visibility Wind Dir Wind Speed Gust Speed Precip Events Conditions
12:15 AM 54.5 °F 54.1 °F 99% 30.02 in 5.0 mi ESE 6.9 mph - N/A   Scattered Clouds
12:35 AM 55.0 °F 54.9 °F 99% 30.02 in 7.0 mi ESE 6.9 mph - N/A   Mostly Cloudy
12:54 AM 55.4 °F 55.0 °F 99% 30.00 in 7.0 mi ESE 8.1 mph - N/A   Overcast
1:15 AM 57.6 °F 56.7 °F 97% 29.99 in 10.0 mi ESE 8.1 mph - N/A   Mostly Cloudy
1:35 AM 57.4 °F 56.7 °F 97% 29.98 in 10.0 mi ESE 8.1 mph - N/A   Scattered Clouds
1:55 AM 57.7 °F 57.2 °F 98% 29.98 in 10.0 mi ESE 6.9 mph - N/A   Mostly Cloudy
2:15 AM 58.1 °F 57.2 °F 97% 29.99 in 10.0 mi SE 6.9 mph - N/A   Overcast
2:35 AM 58.1 °F 57.2 °F 97% 29.98 in 10.0 mi ESE 5.8 mph - N/A   Overcast
2:55 AM 58.1 °F 57.2 °F 97% 29.98 in 10.0 mi ESE 5.8 mph - N/A   Overcast
3:15 AM 58.8 °F 57.6 °F 96% 29.99 in 10.0 mi SE 4.6 mph - N/A   Overcast
3:35 AM 59.2 °F 58.1 °F 96% 29.99 in 10.0 mi SE 4.6 mph - N/A   Overcast
3:55 AM 60.8 °F 59.0 °F 94% 29.99 in 10.0 mi SSE 5.8 mph - N/A   Overcast
4:14 AM 61.2 °F 59.4 °F 94% 29.97 in 10.0 mi SSE 5.8 mph - N/A   Mostly Cloudy
4:35 AM 60.8 °F 59.2 °F 94% 29.95 in 10.0 mi SE 4.6 mph - N/A   Scattered Clouds
4:55 AM 59.9 °F 59.0 °F 97% 29.93 in 10.0 mi ESE 5.8 mph - N/A Rain Rain
5:14 AM 59.2 °F 58.6 °F 98% 29.91 in 7.0 mi SE 5.8 mph - N/A   Clear
5:35 AM 59.2 °F 59.0 °F 99% 29.92 in 7.0 mi SE 8.1 mph - N/A   Scattered Clouds
5:55 AM 59.0 °F 58.5 °F 98% 29.93 in 7.0 mi SE 5.8 mph - N/A   Scattered Clouds
6:15 AM 58.8 °F 58.3 °F 98% 29.93 in 5.0 mi SE 5.8 mph - N/A   Scattered Clouds
6:35 AM 58.6 °F 58.1 °F 98% 29.94 in 4.0 mi ESE 3.5 mph - N/A   Clear
6:55 AM 59.4 °F 58.8 °F 98% 29.95 in 5.0 mi Calm Calm - N/A   Scattered Clouds
7:15 AM 60.4 °F 59.9 °F 98% 29.95 in 7.0 mi Calm Calm - N/A   Overcast
7:35 AM 61.5 °F 60.3 °F 96% 29.95 in 7.0 mi Calm Calm - N/A   Overcast
7:55 AM 61.2 °F 60.1 °F 96% 29.95 in 7.0 mi WNW 4.6 mph - N/A   Overcast
8:15 AM 57.6 °F 56.5 °F 96% 29.96 in 3.0 mi West 5.8 mph - N/A   Overcast
8:35 AM 57.6 °F 57.2 °F 99% 29.97 in 1.2 mi WSW 3.5 mph - N/A   Heavy Drizzle
8:55 AM 58.1 °F 58.1 °F 100% 29.96 in 1.5 mi Calm Calm - N/A   Light Drizzle
9:15 AM 58.5 °F 58.5 °F 100% 29.95 in 1.8 mi Calm Calm - N/A   Overcast
9:34 AM 59.9 °F 59.4 °F 98% 29.97 in 4.0 mi SW 3.5 mph - N/A   Overcast
9:55 AM 60.8 °F 60.1 °F 97% 29.97 in 4.0 mi South 3.5 mph - N/A   Overcast
10:15 AM 60.8 °F 60.3 °F 98% 29.97 in 2.5 mi SSE 4.6 mph - N/A   Overcast
10:35 AM 61.2 °F 60.4 °F 97% 29.96 in 3.0 mi ESE 5.8 mph - N/A   Overcast
10:55 AM 62.1 °F 60.8 °F 96% 29.97 in 4.0 mi SSE 3.5 mph - N/A   Mostly Cloudy
11:15 AM 63.7 °F 61.5 °F 93% 29.98 in 5.0 mi South 5.8 mph - N/A   Mostly Cloudy
11:35 AM 63.7 °F 61.0 °F 91% 29.98 in 7.0 mi SSW 10.4 mph - N/A   Overcast
11:55 AM 62.6 °F 59.0 °F 88% 29.96 in 7.0 mi South 9.2 mph - N/A   Overcast
12:14 PM 66.4 °F 60.8 °F 82% 29.95 in 10.0 mi South 8.1 mph - N/A   Mostly Cloudy
12:35 PM 67.3 °F 60.8 °F 80% 29.97 in 10.0 mi South 12.7 mph 19.6 mph N/A   Scattered Clouds
12:55 PM 64.9 °F 58.8 °F 81% 29.99 in 10.0 mi WSW 10.4 mph 23.0 mph N/A   Mostly Cloudy
1:14 PM 66.6 °F 59.9 °F 79% 29.97 in 10.0 mi SW 9.2 mph - N/A   Scattered Clouds
1:35 PM 67.6 °F 60.1 °F 77% 29.96 in 10.0 mi SSW 6.9 mph - N/A   Clear
1:55 PM 68.4 °F 60.8 °F 77% 29.95 in 10.0 mi SW 6.9 mph - N/A   Clear
2:15 PM 70.3 °F 62.1 °F 75% 29.94 in 10.0 mi South 11.5 mph - N/A   Clear
2:35 PM 72.0 °F 62.1 °F 71% 29.94 in 10.0 mi SSW 13.8 mph 23.0 mph N/A   Clear
2:55 PM 72.9 °F 62.8 °F 71% 29.94 in 10.0 mi SSW 18.4 mph 25.3 mph N/A   Clear
3:15 PM 73.2 °F 62.8 °F 70% 29.93 in 10.0 mi SSW 15.0 mph 21.9 mph N/A   Clear
3:35 PM 74.7 °F 63.3 °F 68% 29.93 in 10.0 mi South 11.5 mph 21.9 mph N/A   Clear
3:55 PM 74.5 °F 63.1 °F 68% 29.92 in 10.0 mi South 10.4 mph 19.6 mph N/A   Clear
4:15 PM 75.0 °F 62.6 °F 65% 29.91 in 10.0 mi South 9.2 mph 17.3 mph N/A   Clear
4:35 PM 76.8 °F 62.2 °F 61% 29.90 in 10.0 mi South 10.4 mph 16.1 mph N/A   Clear
4:55 PM 77.4 °F 61.0 °F 57% 29.90 in 10.0 mi SSW 10.4 mph 18.4 mph N/A   Clear
5:14 PM 77.5 °F 60.6 °F 56% 29.89 in 10.0 mi South 11.5 mph 17.3 mph N/A   Clear
5:35 PM 76.6 °F 61.2 °F 59% 29.88 in 10.0 mi South 12.7 mph 18.4 mph N/A   Clear
5:55 PM 76.5 °F 62.6 °F 62% 29.87 in 10.0 mi South 8.1 mph - N/A   Clear
6:15 PM 76.8 °F 62.8 °F 62% 29.86 in 10.0 mi South 8.1 mph 16.1 mph N/A   Clear
6:35 PM 76.5 °F 62.4 °F 62% 29.86 in 10.0 mi South 6.9 mph - N/A   Clear
6:54 PM 75.4 °F 61.9 °F 63% 29.86 in 10.0 mi SSW 8.1 mph 18.4 mph N/A   Clear
7:15 PM 74.7 °F 62.2 °F 65% 29.87 in 10.0 mi SSW 11.5 mph 16.1 mph N/A   Clear
7:35 PM 73.2 °F 62.4 °F 69% 29.88 in 10.0 mi SW 9.2 mph - N/A   Clear
7:55 PM 72.5 °F 62.2 °F 70% 29.88 in 10.0 mi SW 11.5 mph 18.4 mph N/A   Clear
8:15 PM 69.1 °F 60.6 °F 74% 29.89 in 10.0 mi WSW 13.8 mph 20.7 mph N/A   Clear
8:34 PM 65.5 °F 58.5 °F 78% 29.90 in 10.0 mi SW 13.8 mph 25.3 mph N/A   Clear
8:55 PM 65.8 °F 58.3 °F 77% 29.90 in 10.0 mi SSW 15.0 mph 21.9 mph N/A   Clear
9:15 PM 66.4 °F 57.7 °F 74% 29.90 in 10.0 mi SSW 13.8 mph 25.3 mph N/A   Clear
9:35 PM 67.8 °F 59.0 °F 73% 29.89 in 10.0 mi SSW 11.5 mph 21.9 mph N/A   Clear
9:55 PM 68.4 °F 59.0 °F 72% 29.89 in 10.0 mi SSW 15.0 mph 20.7 mph N/A   Clear
10:14 PM 68.2 °F 59.0 °F 72% 29.90 in 10.0 mi SSW 13.8 mph 25.3 mph N/A   Clear
10:35 PM 67.5 °F 59.4 °F 75% 29.89 in 10.0 mi SSW 17.3 mph 23.0 mph N/A   Clear
10:55 PM 67.3 °F 59.7 °F 77% 29.90 in 10.0 mi SSW 15.0 mph 24.2 mph N/A   Clear
11:15 PM 67.8 °F 60.4 °F 77% 29.90 in 10.0 mi SSW 16.1 mph 24.2 mph N/A   Clear
11:35 PM 68.0 °F 61.0 °F 78% 29.90 in 10.0 mi SSW 17.3 mph 25.3 mph N/A   Clear
11:55 PM 67.6 °F 61.3 °F 80% 29.90 in 10.0 mi SSW 13.8 mph 21.9 mph N/A   Clear